Hourly Data Report for May 04, 2012

All times are specified in Local Standard Time (LST). Add 1 hour to adjust for Daylight Saving Time where and when it is observed.

LONDON A
ONTARIO

43°01'59.000" N
81°09'04.000" W
278.00 m
6144473
71623
YXU

Download Data

Hourly Data (May 2012)
Hourly Data Report for May 4, 2012
Temp Definition
°C
Dew Point Temp Definition
°C
Rel Hum Definition
%
Wind Dir Definition
10's deg

Wind Spd Definition
km/h
Visibility Definition
km
Stn Press Definition
kPa
Hmdx Definition


Wind Chill Definition


Weather Definition


TIME
00:00 16.9 16.3 96 22 14 10.0 98.13     Thunderstorms,Rain Showers
01:00 17.0 16.5 97 23 22 8.1 98.11     Rain Showers,Fog
02:00 16.9 16.1 95 25 18 10.0 98.03     LegendNANA
03:00 16.9 16.3 96 26 12 10.0 98.05     LegendNANA
04:00 16.3 16.0 98 26 12 10.0 98.12     Mostly Cloudy
05:00 16.3 16.0 98 29 8 10.0 98.13     LegendNANA
06:00 16.4 16.1 98 28 6 10.0 98.16     LegendNANA
07:00 17.0 16.7 98 34 6 6.4 98.11     Fog
08:00 17.0 16.5 97 26 8 4.0 98.17     Fog
09:00 18.8 17.5 92 25 7 4.8 98.19     Fog
10:00 19.5 17.5 88 26 4 9.7 98.21     Fog
11:00 20.5 17.9 85 18 9 10.0 98.22 26   LegendNANA
12:00 19.8 17.8 88 20 13 10.0 98.22     Rain Showers
13:00 20.4 17.8 85 24 13 10.0 98.22 26   Cloudy
14:00 21.8 18.5 81 27 12 10.0 98.19 28   LegendNANA
15:00 20.3 17.9 86 33 20 10.0 98.18 26   Rain Showers
16:00 19.6 17.9 90 33 16 10.0 98.19     Mostly Cloudy
17:00 19.8 17.6 87 35 15 10.0 98.18     LegendNANA
18:00 20.0 17.3 84 2 13 10.0 98.13 25   LegendNANA
19:00 19.4 16.5 83 2 15 10.0 98.17     Mainly Clear
20:00 17.8 15.6 87 2 8 10.0 98.19     LegendNANA
21:00 17.2 15.4 89 36 13 10.0 98.25     LegendNANA
22:00 16.5 14.4 87 4 17 10.0 98.28     Mostly Cloudy
23:00 15.7 13.4 86 3 12 10.0 98.33     LegendNANA

Notes on Data Quality.

Legend

  • E = Estimated
  • M = Missing
  • NA = Not Available
Date modified: